| time (UTC) | temp F | wind direction | speed MPH | gust MPH | rain 1hr in | rain 24hr in | rain mn in | humidity % | barometer mb |
| 20260508022537 | 63 | 0 | 0.0 | 6.0 | 0.00 | 0.00 | 0.00 | 81 | 1014.6 |
| 20260508022037 | 63 | 0 | 0.0 | 6.0 | 0.00 | 0.00 | 0.00 | 81 | 1014.2 |
| 20260508021548 | 63 | 0 | 0.0 | 6.0 | 0.00 | 0.00 | 0.00 | 81 | 1014.1 |
| 20260508021037 | 63 | 0 | 0.0 | 6.0 | 0.00 | 0.00 | 0.00 | 81 | 1014.1 |
| 20260508020537 | 63 | 0 | 0.0 | 6.0 | 0.00 | 0.00 | 0.00 | 81 | 1014.2 |
| 20260508020053 | 63 | 0 | 0.0 | 1.0 | 0.00 | 0.00 | 0.00 | 81 | 1014.1 |
| 20260508015537 | 64 | 0 | 0.0 | 0.0 | 0.00 | 0.00 | 0.00 | 81 | 1014.1 |
| 20260508015037 | 64 | 0 | 0.0 | 0.0 | 0.00 | 0.00 | 0.00 | 81 | 1014.3 |
| 20260508014547 | 64 | 0 | 0.0 | 6.0 | 0.00 | 0.00 | 0.00 | 81 | 1014.4 |
| 20260508014040 | 64 | 0 | 0.0 | 6.0 | 0.00 | 0.00 | 0.00 | 81 | 1014.6 |
| 20260508013537 | 64 | 0 | 0.0 | 0.0 | 0.00 | 0.00 | 0.00 | 80 | 1014.6 |
| 20260508013046 | 64 | 0 | 0.0 | 4.0 | 0.00 | 0.00 | 0.00 | 80 | 1014.8 |
| 20260508012537 | 64 | 0 | 0.0 | 4.0 | 0.00 | 0.00 | 0.00 | 79 | 1014.8 |
| 20260508012037 | 64 | 0 | 0.0 | 5.0 | 0.00 | 0.00 | 0.00 | 79 | 1014.7 |
| 20260508011548 | 64 | 0 | 0.0 | 5.0 | 0.00 | 0.00 | 0.00 | 79 | 1014.9 |
| 20260508011039 | 64 | 29 | 0.0 | 5.0 | 0.00 | 0.00 | 0.00 | 79 | 1014.7 |
| 20260508010537 | 64 | 0 | 0.0 | 5.0 | 0.00 | 0.00 | 0.00 | 78 | 1014.9 |
| 20260508010054 | 64 | 0 | 0.0 | 6.0 | 0.00 | 0.00 | 0.00 | 78 | 1014.9 |
| 20260508005537 | 65 | 0 | 0.0 | 8.0 | 0.00 | 0.00 | 0.00 | 78 | 1014.7 |
| 20260508005037 | 65 | 0 | 0.0 | 8.0 | 0.00 | 0.00 | 0.00 | 77 | 1014.7 |
| 20260508004551 | 65 | 0 | 0.0 | 6.0 | 0.00 | 0.00 | 0.00 | 77 | 1014.6 |
| 20260508004039 | 65 | 0 | 0.0 | 4.0 | 0.00 | 0.00 | 0.00 | 77 | 1014.5 |
| 20260508003540 | 65 | 0 | 0.0 | 8.0 | 0.00 | 0.00 | 0.00 | 76 | 1014.3 |
| 20260508003051 | 65 | 0 | 0.0 | 8.0 | 0.00 | 0.00 | 0.00 | 76 | 1014.6 |
| 20260508002537 | 65 | 0 | 0.0 | 8.0 | 0.00 | 0.00 | 0.00 | 77 | 1014.8 |
| 20260508002037 | 65 | 0 | 0.0 | 8.0 | 0.00 | 0.00 | 0.00 | 77 | 1014.6 |
| 20260508001546 | 66 | 0 | 0.0 | 0.0 | 0.00 | 0.00 | 0.00 | 76 | 1014.9 |
| 20260508001037 | 66 | 0 | 0.0 | 5.0 | 0.00 | 0.00 | 0.00 | 76 | 1015.2 |
| 20260508000537 | 66 | 0 | 0.0 | 5.0 | 0.00 | 0.00 | 0.00 | 75 | 1015.1 |
| 20260508000057 | 66 | 0 | 0.0 | 5.0 | 0.00 | 0.00 | 0.00 | 75 | 1015.3 |
| 20260507235537 | 66 | 0 | 0.0 | 0.0 | 0.00 | 0.00 | 0.00 | 75 | 1015.1 |
| 20260507235040 | 66 | 0 | 0.0 | 6.0 | 0.00 | 0.00 | 0.00 | 76 | 1015.2 |
| 20260507234554 | 66 | 0 | 0.0 | 6.0 | 0.00 | 0.00 | 0.00 | 74 | 1015.1 |
| 20260507234041 | 66 | 0 | 0.0 | 5.0 | 0.00 | 0.00 | 0.00 | 74 | 1015.1 |
| 20260507233537 | 67 | 0 | 0.0 | 5.0 | 0.00 | 0.00 | 0.00 | 75 | 1014.9 |
| 20260507233112 | 67 | 16 | 0.0 | 5.0 | 0.00 | 0.00 | 0.00 | 75 | 1015.3 |
| 20260507232537 | 67 | 0 | 0.0 | 7.0 | 0.00 | 0.00 | 0.00 | 74 | 1015.0 |
| 20260507232036 | 67 | 0 | 0.0 | 10.0 | 0.00 | 0.00 | 0.00 | 73 | 1014.9 |
| 20260507231548 | 67 | 0 | 0.0 | 10.0 | 0.00 | 0.00 | 0.00 | 72 | 1014.7 |
| 20260507231036 | 67 | 0 | 1.0 | 8.0 | 0.00 | 0.00 | 0.00 | 73 | 1014.9 |
| 20260507230538 | 67 | 0 | 0.0 | 12.0 | 0.00 | 0.00 | 0.00 | 73 | 1015.1 |
| 20260507230051 | 67 | 0 | 0.0 | 12.0 | 0.00 | 0.00 | 0.00 | 72 | 1015.1 |
| 20260507225538 | 67 | 0 | 0.0 | 12.0 | 0.00 | 0.00 | 0.00 | 72 | 1015.3 |
| 20260507225039 | 67 | 20 | 2.0 | 12.0 | 0.00 | 0.00 | 0.00 | 72 | 1015.4 |
| 20260507224550 | 67 | 0 | 1.0 | 10.0 | 0.00 | 0.00 | 0.00 | 74 | 1015.5 |
| 20260507224037 | 67 | 0 | 0.0 | 10.0 | 0.00 | 0.00 | 0.00 | 73 | 1015.3 |
| 20260507223538 | 67 | 0 | 0.0 | 9.0 | 0.00 | 0.00 | 0.00 | 75 | 1015.2 |
| 20260507223102 | 67 | 0 | 0.0 | 9.0 | 0.00 | 0.00 | 0.00 | 76 | 1015.3 |
| 20260507222536 | 67 | 32 | 1.0 | 9.0 | 0.00 | 0.00 | 0.00 | 75 | 1015.2 |
| 20260507222037 | 68 | 0 | 0.0 | 10.0 | 0.00 | 0.00 | 0.00 | 75 | 1015.2 |
| 20260507221549 | 68 | 0 | 1.0 | 10.0 | 0.00 | 0.00 | 0.00 | 71 | 1015.2 |
| 20260507221037 | 69 | 0 | 0.0 | 6.0 | 0.00 | 0.00 | 0.00 | 72 | 1015.5 |
| 20260507220537 | 69 | 0 | 0.0 | 6.0 | 0.00 | 0.00 | 0.00 | 71 | 1015.4 |
| 20260507220050 | 69 | 0 | 0.0 | 12.0 | 0.00 | 0.00 | 0.00 | 72 | 1015.3 |
| 20260507215537 | 69 | 0 | 0.0 | 12.0 | 0.00 | 0.00 | 0.00 | 70 | 1015.2 |
| 20260507215036 | 69 | 39 | 1.0 | 12.0 | 0.00 | 0.00 | 0.00 | 70 | 1014.9 |
| 20260507214553 | 69 | 53 | 1.0 | 8.0 | 0.00 | 0.00 | 0.00 | 72 | 1014.8 |
| 20260507214037 | 68 | 0 | 0.0 | 8.0 | 0.00 | 0.00 | 0.00 | 71 | 1015.4 |
| 20260507213539 | 68 | 352 | 0.0 | 2.0 | 0.00 | 0.00 | 0.00 | 73 | 1015.3 |
| 20260507213049 | 68 | 0 | 0.0 | 6.0 | 0.00 | 0.00 | 0.00 | 73 | 1015.3 |
| 20260507212541 | 68 | 0 | 0.0 | 7.0 | 0.00 | 0.00 | 0.00 | 73 | 1015.1 |
| 20260507212040 | 68 | 0 | 0.0 | 7.0 | 0.00 | 0.00 | 0.00 | 72 | 1015.2 |
| 20260507211601 | 68 | 0 | 0.0 | 0.0 | 0.00 | 0.00 | 0.00 | 73 | 1014.9 |
| 20260507211037 | 68 | 0 | 0.0 | 10.0 | 0.00 | 0.00 | 0.00 | 72 | 1014.9 |
| 20260507210539 | 68 | 0 | 1.0 | 12.0 | 0.00 | 0.00 | 0.00 | 71 | 1014.8 |
| 20260507210111 | 68 | 0 | 0.0 | 12.0 | 0.00 | 0.00 | 0.00 | 72 | 1014.9 |
| 20260507205539 | 68 | 0 | 1.0 | 10.0 | 0.00 | 0.00 | 0.00 | 72 | 1015.0 |
| 20260507205037 | 69 | 33 | 1.0 | 10.0 | 0.00 | 0.00 | 0.00 | 71 | 1014.9 |
| 20260507204551 | 69 | 42 | 0.0 | 9.0 | 0.00 | 0.00 | 0.00 | 71 | 1015.2 |
| 20260507204036 | 69 | 0 | 1.0 | 11.0 | 0.00 | 0.00 | 0.00 | 70 | 1015.4 |
| 20260507203537 | 70 | 0 | 0.0 | 12.0 | 0.00 | 0.00 | 0.00 | 68 | 1015.4 |
| 20260507203050 | 70 | 75 | 1.0 | 14.0 | 0.00 | 0.00 | 0.00 | 68 | 1015.5 |
| 20260507202536 | 70 | 51 | 1.0 | 14.0 | 0.00 | 0.00 | 0.00 | 69 | 1015.6 |
| 20260507202037 | 71 | 0 | 1.0 | 14.0 | 0.00 | 0.00 | 0.00 | 68 | 1015.6 |
| 20260507201548 | 70 | 0 | 1.0 | 13.0 | 0.00 | 0.00 | 0.00 | 69 | 1015.7 |
| 20260507201037 | 70 | 0 | 1.0 | 13.0 | 0.00 | 0.00 | 0.00 | 68 | 1015.9 |
| 20260507200540 | 70 | 0 | 3.0 | 13.0 | 0.00 | 0.00 | 0.00 | 69 | 1015.9 |
| 20260507200056 | 70 | 0 | 1.0 | 13.0 | 0.00 | 0.00 | 0.00 | 69 | 1016.0 |
| 20260507195541 | 70 | 0 | 4.0 | 13.0 | 0.00 | 0.00 | 0.00 | 68 | 1016.0 |
| 20260507195039 | 71 | 23 | 2.0 | 11.0 | 0.00 | 0.00 | 0.00 | 67 | 1016.0 |
| 20260507194553 | 72 | 0 | 1.0 | 12.0 | 0.00 | 0.00 | 0.00 | 67 | 1016.2 |
| 20260507194036 | 71 | 0 | 1.0 | 12.0 | 0.00 | 0.00 | 0.00 | 68 | 1016.0 |
| 20260507193540 | 72 | 0 | 2.0 | 11.0 | 0.00 | 0.00 | 0.00 | 67 | 1016.1 |
| 20260507193047 | 73 | 0 | 3.0 | 12.0 | 0.00 | 0.00 | 0.00 | 65 | 1016.3 |
| 20260507192536 | 73 | 5 | 1.0 | 12.0 | 0.00 | 0.00 | 0.00 | 66 | 1016.1 |
| 20260507192036 | 72 | 81 | 3.0 | 13.0 | 0.00 | 0.00 | 0.00 | 67 | 1015.7 |
| 20260507191549 | 73 | 0 | 0.0 | 14.0 | 0.00 | 0.00 | 0.00 | 68 | 1015.9 |
| 20260507191037 | 70 | 44 | 2.0 | 14.0 | 0.00 | 0.00 | 0.00 | 69 | 1015.8 |
| 20260507190537 | 70 | 0 | 0.0 | 11.0 | 0.00 | 0.00 | 0.00 | 69 | 1015.7 |
| 20260507190053 | 71 | 0 | 2.0 | 11.0 | 0.00 | 0.00 | 0.00 | 69 | 1015.9 |
| 20260507185537 | 72 | 0 | 3.0 | 10.0 | 0.00 | 0.00 | 0.00 | 66 | 1016.3 |
| 20260507185037 | 71 | 0 | 0.0 | 11.0 | 0.00 | 0.00 | 0.00 | 68 | 1016.4 |
| 20260507184547 | 71 | 0 | 0.0 | 12.0 | 0.00 | 0.00 | 0.00 | 68 | 1016.7 |
| 20260507184039 | 71 | 0 | 3.0 | 12.0 | 0.00 | 0.00 | 0.00 | 68 | 1016.6 |
| 20260507183536 | 71 | 352 | 4.0 | 11.0 | 0.00 | 0.00 | 0.00 | 68 | 1016.2 |
| 20260507183107 | 71 | 0 | 0.0 | 11.0 | 0.00 | 0.00 | 0.00 | 68 | 1016.2 |
| 20260507182537 | 71 | 51 | 2.0 | 11.0 | 0.00 | 0.00 | 0.00 | 68 | 1016.8 |
| 20260507182037 | 70 | 0 | 0.0 | 13.0 | 0.00 | 0.00 | 0.00 | 71 | 1017.1 |
| 20260507181551 | 70 | 0 | 2.0 | 13.0 | 0.00 | 0.00 | 0.00 | 68 | 1017.4 |
| 20260507181038 | 70 | 0 | 0.0 | 8.0 | 0.00 | 0.00 | 0.00 | 71 | 1017.5 |
| 20260507180537 | 69 | 0 | 0.0 | 6.0 | 0.00 | 0.00 | 0.00 | 70 | 1017.7 |
| 20260507180046 | 70 | 0 | 0.0 | 6.0 | 0.00 | 0.00 | 0.00 | 69 | 1017.9 |
| 20260507175537 | 69 | 0 | 0.0 | 7.0 | 0.00 | 0.01 | 0.00 | 70 | 1017.9 |
| 20260507175037 | 69 | 0 | 0.0 | 11.0 | 0.00 | 0.01 | 0.00 | 70 | 1017.3 |
| 20260507174554 | 69 | 0 | 0.0 | 13.0 | 0.00 | 0.01 | 0.00 | 71 | 1016.9 |
| 20260507174042 | 69 | 46 | 1.0 | 13.0 | 0.00 | 0.01 | 0.00 | 71 | 1017.3 |
| 20260507173537 | 68 | 46 | 2.0 | 12.0 | 0.00 | 0.01 | 0.00 | 73 | 1016.9 |
| 20260507173105 | 67 | 0 | 5.0 | 12.0 | 0.00 | 0.01 | 0.00 | 73 | 1017.0 |
| 20260507172537 | 67 | 34 | 0.0 | 13.0 | 0.00 | 0.01 | 0.00 | 73 | 1017.0 |
| 20260507172037 | 67 | 0 | 2.0 | 13.0 | 0.00 | 0.01 | 0.00 | 72 | 1017.3 |
| 20260507171547 | 67 | 0 | 3.0 | 11.0 | 0.00 | 0.01 | 0.00 | 74 | 1017.2 |
| 20260507171037 | 67 | 0 | 1.0 | 9.0 | 0.00 | 0.01 | 0.00 | 74 | 1017.6 |
| 20260507170537 | 67 | 344 | 1.0 | 9.0 | 0.00 | 0.01 | 0.00 | 74 | 1017.8 |
| 20260507170047 | 66 | 0 | 0.0 | 11.0 | 0.00 | 0.01 | 0.00 | 75 | 1017.5 |
| 20260507165536 | 65 | 0 | 1.0 | 11.0 | 0.00 | 0.01 | 0.00 | 75 | 1017.6 |
| 20260507165039 | 65 | 0 | 1.0 | 11.0 | 0.00 | 0.01 | 0.00 | 75 | 1017.5 |
| 20260507164606 | 64 | 0 | 2.0 | 12.0 | 0.00 | 0.01 | 0.00 | 76 | 1017.6 |
| 20260507164038 | 65 | 0 | 4.0 | 12.0 | 0.00 | 0.01 | 0.00 | 76 | 1017.9 |
| 20260507163540 | 65 | 347 | 0.0 | 9.0 | 0.00 | 0.01 | 0.00 | 75 | 1018.0 |
| 20260507163052 | 66 | 0 | 2.0 | 9.0 | 0.00 | 0.01 | 0.00 | 74 | 1018.1 |
| 20260507162538 | 66 | 0 | 2.0 | 9.0 | 0.00 | 0.01 | 0.00 | 75 | 1018.0 |
| 20260507162037 | 66 | 0 | 2.0 | 10.0 | 0.00 | 0.01 | 0.00 | 76 | 1017.8 |
| 20260507161556 | 65 | 0 | 3.0 | 11.0 | 0.00 | 0.01 | 0.00 | 76 | 1017.5 |
| 20260507161039 | 65 | 24 | 2.0 | 13.0 | 0.00 | 0.01 | 0.00 | 76 | 1017.5 |
| 20260507160537 | 65 | 38 | 3.0 | 13.0 | 0.00 | 0.01 | 0.00 | 76 | 1017.5 |
| 20260507160047 | 65 | 0 | 0.0 | 11.0 | 0.00 | 0.01 | 0.00 | 78 | 1017.6 |
| 20260507155537 | 64 | 338 | 2.0 | 11.0 | 0.00 | 0.01 | 0.00 | 78 | 1017.8 |
| 20260507155037 | 65 | 28 | 3.0 | 10.0 | 0.00 | 0.01 | 0.00 | 76 | 1017.6 |
| 20260507154551 | 66 | 0 | 1.0 | 12.0 | 0.00 | 0.01 | 0.00 | 76 | 1017.7 |
| 20260507154037 | 67 | 0 | 0.0 | 12.0 | 0.00 | 0.01 | 0.00 | 74 | 1017.6 |
| 20260507153540 | 65 | 34 | 3.0 | 12.0 | 0.00 | 0.01 | 0.00 | 77 | 1017.1 |
| 20260507153046 | 63 | 0 | 2.0 | 12.0 | 0.00 | 0.01 | 0.00 | 80 | 1016.8 |
| 20260507152539 | 62 | 40 | 3.0 | 10.0 | 0.00 | 0.01 | 0.00 | 81 | 1017.0 |
| 20260507152041 | 61 | 0 | 0.0 | 10.0 | 0.00 | 0.01 | 0.00 | 82 | 1017.4 |
| 20260507151548 | 61 | 55 | 0.0 | 12.0 | 0.00 | 0.01 | 0.00 | 82 | 1017.7 |
| 20260507151040 | 61 | 24 | 2.0 | 13.0 | 0.00 | 0.01 | 0.00 | 82 | 1017.1 |
| 20260507150537 | 61 | 32 | 4.0 | 13.0 | 0.00 | 0.01 | 0.00 | 82 | 1016.8 |
| 20260507150050 | 61 | 0 | 4.0 | 13.0 | 0.00 | 0.01 | 0.00 | 82 | 1017.4 |
| 20260507145537 | 61 | 47 | 3.0 | 13.0 | 0.00 | 0.01 | 0.00 | 83 | 1017.7 |
| 20260507145037 | 61 | 9 | 3.0 | 13.0 | 0.00 | 0.01 | 0.00 | 83 | 1017.5 |
| 20260507144546 | 60 | 0 | 1.0 | 11.0 | 0.00 | 0.01 | 0.00 | 84 | 1017.6 |
| 20260507144037 | 60 | 0 | 3.0 | 12.0 | 0.00 | 0.01 | 0.00 | 84 | 1017.6 |
| 20260507143536 | 60 | 0 | 2.0 | 12.0 | 0.00 | 0.01 | 0.00 | 85 | 1017.3 |
| 20260507143100 | 60 | 0 | 1.0 | 14.0 | 0.00 | 0.01 | 0.00 | 85 | 1017.5 |
| 20260507142537 | 60 | 0 | 2.0 | 14.0 | 0.00 | 0.01 | 0.00 | 85 | 1017.8 |
| 20260507142037 | 60 | 47 | 4.0 | 14.0 | 0.00 | 0.01 | 0.00 | 85 | 1017.7 |
| 20260507141545 | 60 | 0 | 1.0 | 14.0 | 0.00 | 0.01 | 0.00 | 85 | 1017.6 |
| 20260507141040 | 60 | 0 | 4.0 | 14.0 | 0.00 | 0.01 | 0.00 | 85 | 1017.8 |
| 20260507140537 | 60 | 0 | 1.0 | 9.0 | 0.00 | 0.01 | 0.00 | 86 | 1017.9 |
| 20260507140053 | 60 | 0 | 1.0 | 15.0 | 0.00 | 0.01 | 0.00 | 86 | 1017.9 |
| 20260507135537 | 60 | 38 | 2.0 | 15.0 | 0.00 | 0.01 | 0.00 | 86 | 1017.8 |
| 20260507135037 | 60 | 351 | 0.0 | 11.0 | 0.00 | 0.01 | 0.00 | 86 | 1017.9 |
| 20260507134549 | 60 | 0 | 2.0 | 11.0 | 0.00 | 0.01 | 0.00 | 86 | 1017.9 |
| 20260507134036 | 60 | 0 | 1.0 | 11.0 | 0.00 | 0.01 | 0.00 | 86 | 1017.9 |
| 20260507133537 | 59 | 0 | 0.0 | 11.0 | 0.00 | 0.01 | 0.00 | 87 | 1017.7 |
| 20260507133050 | 59 | 5 | 2.0 | 11.0 | 0.00 | 0.01 | 0.00 | 87 | 1017.5 |
| 20260507132537 | 59 | 349 | 1.0 | 13.0 | 0.00 | 0.01 | 0.00 | 87 | 1017.6 |
| 20260507132036 | 59 | 0 | 2.0 | 13.0 | 0.00 | 0.01 | 0.00 | 87 | 1017.6 |
| 20260507131545 | 59 | 73 | 1.0 | 15.0 | 0.00 | 0.01 | 0.00 | 87 | 1017.6 |
| 20260507131038 | 59 | 5 | 3.0 | 15.0 | 0.00 | 0.01 | 0.00 | 87 | 1017.5 |
| 20260507130541 | 59 | 0 | 4.0 | 14.0 | 0.00 | 0.01 | 0.00 | 87 | 1017.6 |
| 20260507130054 | 59 | 21 | 3.0 | 13.0 | 0.00 | 0.01 | 0.00 | 87 | 1017.5 |
| 20260507125537 | 59 | 0 | 2.0 | 13.0 | 0.00 | 0.01 | 0.00 | 87 | 1017.6 |
| 20260507125037 | 59 | 0 | 3.0 | 13.0 | 0.00 | 0.01 | 0.00 | 87 | 1017.3 |
| 20260507124547 | 59 | 33 | 3.0 | 12.0 | 0.00 | 0.01 | 0.00 | 87 | 1017.2 |
| 20260507124037 | 59 | 0 | 4.0 | 12.0 | 0.00 | 0.01 | 0.00 | 87 | 1017.1 |
| 20260507123537 | 59 | 352 | 1.0 | 15.0 | 0.00 | 0.01 | 0.00 | 87 | 1017.2 |
| 20260507123044 | 59 | 0 | 3.0 | 15.0 | 0.00 | 0.01 | 0.00 | 86 | 1017.1 |
| 20260507122536 | 60 | 0 | 4.0 | 13.0 | 0.00 | 0.01 | 0.00 | 87 | 1017.3 |
| 20260507122037 | 60 | 0 | 1.0 | 12.0 | 0.00 | 0.01 | 0.00 | 86 | 1017.2 |
| 20260507121543 | 60 | 0 | 2.0 | 11.0 | 0.00 | 0.01 | 0.00 | 86 | 1017.0 |
| 20260507121037 | 60 | 0 | 3.0 | 12.0 | 0.00 | 0.01 | 0.00 | 87 | 1016.8 |
| 20260507120537 | 60 | 29 | 1.0 | 12.0 | 0.00 | 0.01 | 0.00 | 87 | 1016.7 |
| 20260507120052 | 60 | 0 | 0.0 | 12.0 | 0.00 | 0.01 | 0.00 | 87 | 1016.9 |
| 20260507115537 | 60 | 0 | 1.0 | 13.0 | 0.00 | 0.01 | 0.00 | 87 | 1016.4 |
| 20260507115041 | 60 | 30 | 0.0 | 13.0 | 0.00 | 0.01 | 0.00 | 87 | 1016.6 |
| 20260507114604 | 60 | 0 | 1.0 | 12.0 | 0.00 | 0.01 | 0.00 | 87 | 1016.8 |
| 20260507114037 | 60 | 0 | 3.0 | 12.0 | 0.00 | 0.01 | 0.00 | 87 | 1016.5 |
| 20260507113537 | 60 | 0 | 4.0 | 12.0 | 0.00 | 0.01 | 0.00 | 87 | 1016.1 |
| 20260507113105 | 61 | 0 | 1.0 | 10.0 | 0.00 | 0.01 | 0.00 | 87 | 1016.1 |
| 20260507112538 | 61 | 0 | 0.0 | 12.0 | 0.00 | 0.01 | 0.00 | 87 | 1016.0 |
| 20260507112040 | 61 | 44 | 0.0 | 12.0 | 0.00 | 0.01 | 0.00 | 87 | 1015.7 |
| 20260507111550 | 61 | 49 | 0.0 | 13.0 | 0.00 | 0.01 | 0.00 | 87 | 1015.7 |
| 20260507111037 | 61 | 0 | 4.0 | 13.0 | 0.00 | 0.01 | 0.00 | 87 | 1015.8 |
| 20260507110537 | 61 | 0 | 0.0 | 10.0 | 0.00 | 0.01 | 0.00 | 87 | 1015.8 |
| 20260507110048 | 61 | 0 | 1.0 | 11.0 | 0.00 | 0.01 | 0.00 | 88 | 1015.8 |
| 20260507105537 | 61 | 0 | 0.0 | 11.0 | 0.00 | 0.01 | 0.00 | 88 | 1016.3 |
| 20260507105037 | 61 | 69 | 0.0 | 12.0 | 0.00 | 0.01 | 0.00 | 88 | 1015.5 |
| 20260507104546 | 61 | 13 | 2.0 | 14.0 | 0.00 | 0.01 | 0.00 | 89 | 1015.8 |
| 20260507104037 | 61 | 5 | 2.0 | 14.0 | 0.00 | 0.01 | 0.00 | 89 | 1015.1 |
| 20260507103536 | 61 | 47 | 1.0 | 14.0 | 0.00 | 0.01 | 0.00 | 89 | 1015.4 |
| 20260507103053 | 61 | 0 | 2.0 | 14.0 | 0.00 | 0.01 | 0.00 | 89 | 1015.4 |
| 20260507102539 | 61 | 0 | 3.0 | 14.0 | 0.00 | 0.01 | 0.00 | 89 | 1015.2 |
| 20260507102038 | 61 | 0 | 1.0 | 9.0 | 0.00 | 0.01 | 0.00 | 89 | 1015.3 |
| 20260507101552 | 62 | 0 | 1.0 | 8.0 | 0.00 | 0.01 | 0.00 | 89 | 1015.7 |
| 20260507101036 | 62 | 0 | 0.0 | 9.0 | 0.00 | 0.01 | 0.00 | 89 | 1015.5 |
| 20260507100538 | 62 | 0 | 0.0 | 9.0 | 0.00 | 0.01 | 0.00 | 89 | 1015.4 |
| 20260507100047 | 62 | 345 | 1.0 | 9.0 | 0.00 | 0.01 | 0.00 | 89 | 1015.0 |
| 20260507095537 | 62 | 360 | 0.0 | 7.0 | 0.00 | 0.01 | 0.00 | 89 | 1015.3 |
| 20260507095038 | 62 | 0 | 0.0 | 7.0 | 0.00 | 0.01 | 0.00 | 89 | 1014.6 |
| 20260507094548 | 62 | 0 | 0.0 | 0.0 | 0.00 | 0.01 | 0.00 | 89 | 1014.8 |
| 20260507094037 | 62 | 0 | 0.0 | 0.0 | 0.00 | 0.01 | 0.00 | 89 | 1015.0 |
| 20260507093537 | 62 | 0 | 0.0 | 0.0 | 0.00 | 0.01 | 0.00 | 89 | 1015.2 |
| 20260507093051 | 62 | 0 | 0.0 | 9.0 | 0.00 | 0.01 | 0.00 | 89 | 1014.9 |
| 20260507092537 | 62 | 0 | 0.0 | 9.0 | 0.00 | 0.01 | 0.00 | 89 | 1014.8 |
| 20260507092037 | 61 | 9 | 0.0 | 8.0 | 0.00 | 0.01 | 0.00 | 90 | 1014.4 |
| 20260507091615 | 61 | 11 | 0.0 | 7.0 | 0.00 | 0.01 | 0.00 | 89 | 1014.4 |
| 20260507091037 | 61 | 0 | 2.0 | 7.0 | 0.00 | 0.01 | 0.00 | 89 | 1013.9 |
| 20260507090538 | 61 | 0 | 1.0 | 12.0 | 0.00 | 0.01 | 0.00 | 89 | 1013.9 |
| 20260507090049 | 61 | 0 | 1.0 | 12.0 | 0.00 | 0.01 | 0.00 | 89 | 1014.0 |
| 20260507085537 | 61 | 0 | 3.0 | 12.0 | 0.00 | 0.01 | 0.00 | 89 | 1014.0 |
| 20260507085037 | 61 | 12 | 2.0 | 10.0 | 0.00 | 0.01 | 0.00 | 89 | 1014.0 |
| 20260507084555 | 61 | 34 | 2.0 | 12.0 | 0.00 | 0.01 | 0.00 | 89 | 1013.5 |
| 20260507084036 | 61 | 0 | 2.0 | 14.0 | 0.00 | 0.01 | 0.00 | 89 | 1013.7 |
| 20260507083537 | 62 | 67 | 2.0 | 14.0 | 0.00 | 0.01 | 0.00 | 88 | 1013.7 |
| 20260507083047 | 62 | 36 | 3.0 | 10.0 | 0.00 | 0.01 | 0.00 | 88 | 1014.0 |
| 20260507082537 | 62 | 0 | 3.0 | 9.0 | 0.00 | 0.01 | 0.00 | 88 | 1014.1 |
| 20260507082037 | 62 | 28 | 0.0 | 6.0 | 0.00 | 0.01 | 0.00 | 88 | 1014.7 |
| 20260507081556 | 62 | 0 | 0.0 | 4.0 | 0.00 | 0.01 | 0.00 | 88 | 1015.1 |
| 20260507081037 | 62 | 0 | 0.0 | 4.0 | 0.00 | 0.01 | 0.00 | 88 | 1015.4 |
| 20260507080537 | 62 | 0 | 0.0 | 9.0 | 0.00 | 0.01 | 0.00 | 88 | 1014.8 |
| 20260507080052 | 62 | 0 | 1.0 | 9.0 | 0.00 | 0.01 | 0.00 | 88 | 1014.5 |
| 20260507075537 | 62 | 0 | 0.0 | 10.0 | 0.00 | 0.01 | 0.00 | 88 | 1014.2 |
| 20260507075039 | 62 | 331 | 1.0 | 10.0 | 0.00 | 0.01 | 0.00 | 88 | 1014.3 |
| 20260507074550 | 62 | 0 | 0.0 | 12.0 | 0.00 | 0.01 | 0.00 | 88 | 1013.8 |
| 20260507074039 | 62 | 49 | 1.0 | 12.0 | 0.00 | 0.01 | 0.00 | 88 | 1014.3 |
| 20260507073537 | 62 | 0 | 3.0 | 12.0 | 0.00 | 0.01 | 0.00 | 88 | 1014.0 |
| 20260507073048 | 62 | 0 | 3.0 | 15.0 | 0.00 | 0.01 | 0.00 | 87 | 1014.4 |
| 20260507072538 | 62 | 0 | 3.0 | 15.0 | 0.00 | 0.01 | 0.00 | 87 | 1014.4 |
| 20260507072038 | 62 | 32 | 4.0 | 14.0 | 0.00 | 0.01 | 0.00 | 87 | 1014.3 |
| 20260507071546 | 62 | 33 | 4.0 | 14.0 | 0.00 | 0.01 | 0.00 | 87 | 1014.2 |
| 20260507071037 | 62 | 20 | 1.0 | 9.0 | 0.00 | 0.01 | 0.00 | 87 | 1014.7 |
| 20260507070538 | 62 | 0 | 2.0 | 11.0 | 0.00 | 0.01 | 0.00 | 87 | 1014.7 |
| 20260507070049 | 62 | 28 | 2.0 | 11.0 | 0.00 | 0.01 | 0.00 | 87 | 1014.9 |
| 20260507065540 | 62 | 0 | 4.0 | 12.0 | 0.00 | 0.01 | 0.00 | 87 | 1014.7 |
| 20260507065037 | 62 | 5 | 2.0 | 12.0 | 0.00 | 0.01 | 0.00 | 87 | 1013.9 |
| 20260507064548 | 62 | 0 | 5.0 | 12.0 | 0.00 | 0.01 | 0.00 | 87 | 1014.8 |
| 20260507064040 | 62 | 39 | 4.0 | 11.0 | 0.00 | 0.01 | 0.00 | 87 | 1014.5 |
| 20260507063537 | 62 | 29 | 2.0 | 11.0 | 0.00 | 0.01 | 0.00 | 86 | 1015.1 |
| 20260507063045 | 62 | 69 | 5.0 | 11.0 | 0.00 | 0.01 | 0.00 | 86 | 1015.0 |
| 20260507062537 | 62 | 0 | 1.0 | 9.0 | 0.00 | 0.01 | 0.00 | 86 | 1014.9 |
| 20260507062037 | 62 | 0 | 1.0 | 8.0 | 0.00 | 0.01 | 0.00 | 86 | 1015.3 |
| 20260507061546 | 62 | 0 | 0.0 | 9.0 | 0.00 | 0.01 | 0.00 | 86 | 1015.2 |
| 20260507061037 | 62 | 11 | 1.0 | 12.0 | 0.00 | 0.01 | 0.00 | 86 | 1015.5 |
| 20260507060537 | 62 | 347 | 2.0 | 16.0 | 0.00 | 0.01 | 0.00 | 86 | 1015.2 |
| 20260507060057 | 62 | 58 | 3.0 | 16.0 | 0.00 | 0.01 | 0.00 | 86 | 1014.6 |
| 20260507055538 | 62 | 32 | 4.0 | 12.0 | 0.00 | 0.01 | 0.00 | 86 | 1014.6 |
| 20260507055038 | 62 | 52 | 2.0 | 10.0 | 0.00 | 0.01 | 0.00 | 86 | 1014.2 |
| 20260507054547 | 62 | 31 | 2.0 | 13.0 | 0.00 | 0.01 | 0.00 | 86 | 1014.5 |
| 20260507054040 | 62 | 5 | 0.0 | 13.0 | 0.00 | 0.01 | 0.00 | 86 | 1014.7 |
| 20260507053538 | 62 | 18 | 3.0 | 13.0 | 0.00 | 0.01 | 0.00 | 86 | 1015.0 |
| 20260507053046 | 62 | 0 | 1.0 | 12.0 | 0.00 | 0.01 | 0.00 | 86 | 1015.1 |
| 20260507052539 | 62 | 360 | 2.0 | 14.0 | 0.00 | 0.01 | 0.00 | 86 | 1014.6 |
| 20260507052037 | 62 | 352 | 2.0 | 14.0 | 0.00 | 0.01 | 0.00 | 86 | 1014.8 |
| 20260507051548 | 62 | 5 | 1.0 | 12.0 | 0.00 | 0.01 | 0.00 | 85 | 1014.6 |
| 20260507051036 | 62 | 360 | 3.0 | 12.0 | 0.00 | 0.01 | 0.00 | 85 | 1014.9 |
| 20260507050536 | 62 | 0 | 1.0 | 12.0 | 0.00 | 0.01 | 0.00 | 85 | 1014.6 |
| 20260507050049 | 63 | 0 | 2.0 | 12.0 | 0.00 | 0.01 | 0.00 | 85 | 1014.6 |
| 20260507045540 | 63 | 31 | 2.0 | 12.0 | 0.00 | 0.01 | 0.01 | 85 | 1014.7 |
| 20260507045037 | 63 | 30 | 2.0 | 10.0 | 0.00 | 0.01 | 0.01 | 85 | 1014.8 |
| 20260507044559 | 63 | 0 | 1.0 | 12.0 | 0.00 | 0.01 | 0.01 | 84 | 1014.9 |
| 20260507044039 | 63 | 11 | 3.0 | 14.0 | 0.00 | 0.01 | 0.01 | 85 | 1014.6 |
| 20260507043537 | 63 | 0 | 4.0 | 14.0 | 0.00 | 0.01 | 0.01 | 84 | 1014.9 |
| 20260507043100 | 63 | 351 | 2.0 | 11.0 | 0.00 | 0.01 | 0.01 | 84 | 1014.9 |
| 20260507042538 | 63 | 0 | 0.0 | 8.0 | 0.00 | 0.01 | 0.01 | 84 | 1014.7 |
| 20260507042041 | 63 | 32 | 1.0 | 9.0 | 0.00 | 0.01 | 0.01 | 84 | 1014.7 |
| 20260507041555 | 63 | 0 | 0.0 | 12.0 | 0.00 | 0.01 | 0.01 | 84 | 1015.1 |
| 20260507041037 | 63 | 0 | 2.0 | 14.0 | 0.00 | 0.01 | 0.01 | 84 | 1014.9 |
| 20260507040537 | 63 | 37 | 3.0 | 14.0 | 0.00 | 0.01 | 0.01 | 84 | 1014.5 |
| 20260507040052 | 63 | 0 | 1.0 | 12.0 | 0.00 | 0.01 | 0.01 | 84 | 1014.7 |
| 20260507035538 | 63 | 0 | 2.0 | 13.0 | 0.00 | 0.01 | 0.01 | 84 | 1014.5 |
| 20260507035038 | 63 | 0 | 2.0 | 13.0 | 0.00 | 0.01 | 0.01 | 84 | 1014.7 |
| 20260507034546 | 63 | 0 | 0.0 | 11.0 | 0.00 | 0.01 | 0.01 | 84 | 1014.5 |
| 20260507034038 | 63 | 0 | 1.0 | 11.0 | 0.00 | 0.01 | 0.01 | 84 | 1014.4 |
| 20260507033539 | 63 | 0 | 0.0 | 10.0 | 0.00 | 0.01 | 0.01 | 84 | 1014.5 |
| 20260507033047 | 63 | 0 | 1.0 | 10.0 | 0.00 | 0.01 | 0.01 | 84 | 1014.6 |
| 20260507032538 | 64 | 0 | 0.0 | 9.0 | 0.00 | 0.01 | 0.01 | 84 | 1014.4 |
| 20260507032037 | 64 | 0 | 0.0 | 8.0 | 0.00 | 0.01 | 0.01 | 84 | 1014.4 |
| 20260507031550 | 63 | 0 | 0.0 | 7.0 | 0.00 | 0.01 | 0.01 | 83 | 1014.3 |
| 20260507031037 | 64 | 321 | 0.0 | 10.0 | 0.00 | 0.01 | 0.01 | 84 | 1014.4 |
| 20260507030539 | 64 | 0 | 1.0 | 10.0 | 0.00 | 0.01 | 0.01 | 84 | 1014.4 |
| 20260507030050 | 64 | 0 | 0.0 | 10.0 | 0.00 | 0.01 | 0.01 | 84 | 1014.3 |
| 20260507025537 | 64 | 360 | 0.0 | 11.0 | 0.00 | 0.01 | 0.01 | 84 | 1014.2 |
| 20260507025040 | 64 | 0 | 0.0 | 11.0 | 0.00 | 0.01 | 0.01 | 84 | 1014.1 |
| 20260507024552 | 64 | 21 | 2.0 | 11.0 | 0.00 | 0.01 | 0.01 | 84 | 1013.6 |
| 20260507024038 | 64 | 0 | 1.0 | 12.0 | 0.00 | 0.01 | 0.01 | 84 | 1013.5 |
| 20260507023537 | 64 | 0 | 1.0 | 12.0 | 0.00 | 0.01 | 0.01 | 84 | 1013.4 |
| 20260507023057 | 64 | 0 | 2.0 | 12.0 | 0.00 | 0.01 | 0.01 | 84 | 1013.4 |